Flag for Germany Weather past 2 weeks in Baden-Baden, Baden-Württemberg, Germany

Now
81 °F

Passing clouds.


Feels Like: 81 °F
Forecast: 64 / 94 °F
Wind: 7 mph from Southwest

Location: Karlsruhe - Baden Wurttemberg

Current Time: Jul 6, 2015 at 3:17:01 AM

Latest Report: Jul 5, 2015 at 11:50 PM


Visibility: N/A

Pressure: 30.01 "Hg

Humidity: 51%

Dew point: 61 °F

Location of Baden-BadenLocation

Historic Weather in Baden-Baden — Graph

°F

Baden-Baden temperature yesterday

Maximum temperature yesterday: 100 °F (at 3:50 PM)
Minimum temperature yesterday: 70 °F (at 4:50 AM)
Average temperature yesterday: 88 °F

Past Weeks' High & Low Weather Summary

 TemperatureHumidityPressure
High100 °F (Jul 4, 4:50 PM)94% (Jun 21, 12:20 AM)30.21 "Hg (Jun 21, 12:20 AM)
Low48 °F (Jun 23, 6:20 AM)22% (Jul 4, 4:50 PM)29.74 "Hg (Jun 22, 7:50 PM)
Average72 °F57%30.08 "Hg
* Reported Jun 20 11:20 PM — Jul 5 11:50 PM, Baden-Baden, Weather by CustomWeather, © 2015

Note: Actual official high and low records may vary slightly from our data, if they occured in-between our weather recording intervals... More about our weather records

Advertising

Baden-Baden weather history for previous 24 hours

 ConditionsComfort  
Time TempWeatherWind HumidityBarometerVisibility
11:50 PM
Sun, Jul 5
81 °FPassing clouds.7 mph51%30.01 "HgN/A
11:20 PM84 °FPassing clouds.8 mph43%30.01 "HgN/A
10:50 PM84 °FPassing clouds.5 mph40%29.98 "HgN/A
10:20 PM86 °FPassing clouds.7 mph40%29.95 "HgN/A
9:50 PM88 °FSunny.9 mph38%29.95 "Hg10 mi
9:20 PM90 °FBroken clouds.12 mph33%29.89 "HgN/A
8:50 PM91 °FBroken clouds.5 mph36%29.89 "HgN/A
8:20 PM93 °FScattered showers. Broken clouds.7 mph34%29.86 "HgN/A
7:50 PM95 °FSunny.5 mph28%29.86 "Hg10 mi
7:20 PM99 °FSunny.7 mph24%29.86 "Hg10 mi
6:50 PM99 °FSunny.8 mph24%29.86 "Hg10 mi
6:20 PM99 °FSunny.8 mph24%29.86 "Hg10 mi
5:50 PM100 °FSunny.7 mph24%29.86 "Hg10 mi
5:20 PM100 °FSunny.7 mph22%29.89 "Hg10 mi
4:50 PM99 °FSunny.6 mph25%29.89 "Hg10 mi
4:20 PM100 °FSunny.8 mph24%29.92 "Hg10 mi
3:50 PM100 °FPassing clouds.10 mph22%29.92 "HgN/A
3:20 PM99 °FSunny.9 mph25%29.95 "Hg10 mi
2:50 PM99 °FPassing clouds.8 mph25%29.95 "HgN/A
2:20 PM97 °FSunny.7 mph28%29.95 "Hg10 mi
1:50 PM97 °FSunny.7 mph28%29.98 "Hg10 mi
1:20 PM95 °FPassing clouds.7 mph32%29.98 "HgN/A
12:50 PM95 °FPassing clouds.6 mph32%29.98 "HgN/A
12:20 PM91 °FPassing clouds.6 mph36%29.98 "HgN/A
11:50 AM90 °FPassing clouds.6 mph41%30.01 "HgN/A
11:20 AM88 °FPassing clouds.5 mph43%30.01 "HgN/A
10:50 AM86 °FPassing clouds.6 mph49%30.01 "HgN/A
10:20 AM84 °FSunny.3 mph51%30.01 "Hg10 mi
9:50 AM82 °FPassing clouds.5 mph55%30.04 "HgN/A
9:20 AM82 °FPassing clouds.6 mph51%30.04 "HgN/A
8:50 AM82 °FPassing clouds.5 mph55%30.04 "HgN/A
8:20 AM81 °FSunny.2 mph58%30.04 "Hg10 mi
7:50 AM79 °FSunny.3 mph58%30.04 "Hg10 mi
7:20 AM75 °FSunny.3 mph65%30.04 "Hg10 mi
6:50 AM73 °FSunny.6 mph74%30.04 "Hg10 mi
6:20 AM73 °FClear.2 mph78%30.07 "Hg10 mi
5:20 AM70 °FThundershowers. Passing clouds.1 mph83%30.04 "HgN/A
4:50 AM70 °FClear.2 mph83%30.04 "Hg10 mi
4:20 AM72 °FClear.3 mph83%30.04 "Hg10 mi
Weather by CustomWeather, © 2015

See weather overviewHow to use our weather pages